Regional Weather Roundup
Issued by NWS New Orleans/Baton Rouge, LA

Home | Current Version | Previous Version | Graphics & Text | Print | Product List | Glossary On
Versions: 1 2 3 4 5 6 7 8 9 10 11 12 13 14 15 16 17 18 19 20 21 22 23 24 25 26 27 28 29 30 31 32 33 34 35 36 37 38 39 40 41 42 43 44 45 46 47 48 49 50
082
ASUS44 KLIX 241101
RWRLIX
NEW ORLEANS REGIONAL WEATHER ROUNDUP
NATIONAL WEATHER SERVICE NEW ORLEANS LA
500 AM CST MON NOV 24 2014

NOTE: "FAIR" INDICATES FEW OR NO CLOUDS BELOW 12,000 FEET WITH NO
      SIGNIFICANT WEATHER AND/OR OBSTRUCTIONS TO VISIBILITY.
      SKY/WX - SKY CONDITION AND SIGNIFICANT WEATHER.
      TMP - AIR TEMPERATURE.     DP    - DEWPOINT TEMPERATURE.
      RH  - RELATIVE HUMIDITY.   PRES  - PRESSURE.
      HI  - HEAT INDEX.          WCI   - WIND CHILL INDEX.

*  THESE STATIONS ARE NOT NWS OR FAA STATIONS AND ARE NOT UNDER
   NWS QUALITY CONTROL.

LAZ038-040-048-061>063-065>067-069-241200-
SOUTHEAST LOUISIANA

CITY           SKY/WX    TMP DP  RH WIND       PRES   REMARKS
N.O. AUDUBON   NOT AVBL
N.O. INTL ARPT PTCLDY    66  64  93 SW6       29.78R
N.O. LAKEFRONT MOCLDY    66  64  93 SW14      29.78R FOG
N.O. DOWNTOWN* CLOUDY    66  63  88 SW5       29.79R
SLIDELL        CLOUDY    68  66  93 VRB6      29.78R FOG
BATON ROUGE    PTCLDY    63  61  93 W6        29.78R
BOOTHVILLE     FOG       64  64 100 SW5       29.79S VSB 1/2
BELLE CHASSE   CLOUDY    69  65  86 SW7       29.78R
BOGALUSA*        N/A     66  63  89 W6        29.79R FOG
NEW ROADS*     NOT AVBL
GONZALES*      NOT AVBL
HAMMOND*       NOT AVBL
HOUMA*         CLOUDY    69  68  98 W3        29.79R FOG
PORT FOURCHON* SUNNY     70  68  94 SW8       29.83R FOG

$$

MSZ070-080>082-241200-
SOUTHERN MISSISSIPPI

CITY           SKY/WX    TMP DP  RH WIND       PRES   REMARKS
MCCOMB         PTCLDY    63  60  90 W6        29.76R
GULFPORT       CLOUDY    67  67 100 W9        29.77R FOG
BILOXI         FOG       67  67 100 VRB7      29.77S VSB 1/2
PASCAGOULA     CLOUDY    67  67 100 VRB7      29.78R FOG

$$

COASTAL OBSERVATIONS
LAKE AND NEARSHORE STATIONS

STATION/POSITION TIME  TEMP    WIND        PRES    WAVE
                       AIR SEA DIR/SP/G            HT/PER
                 (UTC) (F)     (DEG/KT/KT) (MB)    (FT/S)
PASCAGOULA       1000   64     250/  6/  8 1007.7
WAVELAND YACHT   1000   67     260/  6/ 11 1007.2
GRAND ISLE       1000   69 65  230/  7/  9 1009.2
SOUTHWEST PASS   1000   68                 1009.1
NEW CANAL        1000   67 56  230/  8/ 11 1008.6
SHELL BEACH      1000   65 54  220/  7/  8 1008.1

OFFSHORE STATIONS

STATION/POSITION TIME  TEMP    WIND        PRES    WAVE
                       AIR SEA DIR/SP/G            HT/PER
                 (UTC) (F)     (DEG/KT/KT) (MB)    (FT/S)

$$




USA.gov is the U.S. government's official web portal to all federal, state and local government web resources and services.